User: anonymous   Login
Location: Aalen
(48.8330°N, 10.1000°E)
Time: 13:56:40
(UTC+02:00)
Language:

S-56A Canister/Altair - Orbit

View from above orbital plane
View from above orbital plane
View from above satellite
View from above satellite

Ground track
Ground track

The orbit data is extracted from the following two-line orbital elements,

1 00082U 61004B   21213.86467655 -.00000109  00000-0 -62899-4 0  9997
2 00082  38.8648 118.6815 1176636 264.3303  82.2352 12.26028682858189
Epoch (UTC): 01 August 2021 20:45:08
Eccentricity: 0.1176636
inclination: 38.8648°
perigee height: 631 km
apogee height: 2501 km
right ascension of ascending node: 118.6815°
argument of perigee: 264.3303°
revolutions per day: 12.26028682
mean anomaly at epoch: 82.2352°
orbit number at epoch: 85818

The dashed part of the orbit path shows where the satellite is in the earth's shadow,  

DLR